This demonstration page uses our WeatherBlox Daily Observations layout. Learn more.

Left ArrowRight Arrow

44.8408, -93.29828

Hourly Observations for July 9, 2021

Temp ( °F °C ) Dew Point ( °F °C ) Humidity (%) Winds ( mph kmh ) Pressure ( in mb ) Visibility ( mi km ) Precip ( " mm )
12:53 am 00:53 Mostly Cloudy 65 18.3 57 13.9 76 76 ESE 7 11 30.00 1016 10 16 0.00 0.00
1:53 am 01:53 Mostly Cloudy 64 17.8 57 13.9 78 78 SE 6 9 30.01 1016 10 16 0.00 0.00
2:53 am 02:53 Mostly Cloudy 63 17.2 57 13.9 81 81 E 3 6 29.99 1016 10 16 0.00 0.00
3:53 am 03:53 Mostly Clear 62 16.7 57 13.9 84 84 E 6 9 29.98 1015 10 16 0.00 0.00
4:53 am 04:53 Partly Cloudy 62 16.7 58 14.4 86 86 SSE 5 7 30.01 1016 10 16 0.00 0.00
5:53 am 05:53 Mostly Cloudy 62 16.7 58 14.4 86 86 E 6 9 30.01 1016 10 16 0.00 0.00
6:53 am 06:53 Partly Cloudy 62 16.7 58 14.4 86 86 E 10 17 30.00 1016 10 16 0.00 0.00
7:53 am 07:53 Partly Cloudy 66 18.9 59 15 78 78 ESE 12 19 30.01 1016 10 16 0.00 0.00
8:53 am 08:53 Mostly Cloudy 69 20.6 60 15.6 73 73 ESE 9 15 30.01 1016 10 16 0.00 0.00
9:53 am 09:53 Mostly Cloudy 70 21.1 60 15.6 71 71 E 10 17 30.01 1016 10 16 0.00 0.00
10:53 am 10:53 Mostly Cloudy 72 22.2 61 16.1 68 68 E 8 13 30.01 1016 10 16 0.00 0.00
11:41 am 11:41 Mostly Cloudy 73 22.8 61 16.1 66 66 ENE 9 15 29.99 1016 10 16 0.00 0.00
11:53 am 11:53 Mostly Cloudy 73 22.8 61 16.1 66 66 E 10 17 30.01 1016 10 16 0.00 0.00
12:37 pm 12:37 Mostly Cloudy 73 22.8 61 16.1 66 66 E 9 15 29.99 1016 10 16 0.00 0.00
12:53 pm 12:53 Cloudy 74 23.3 62 16.7 67 67 ESE 3 6 30.01 1016 10 16 0.00 0.00
1:53 pm 13:53 Mostly Cloudy 76 24.4 61 16.1 60 60 ESE 10 17 30.00 1016 10 16 0.00 0.00
2:53 pm 14:53 Mostly Cloudy 77 25 61 16.1 58 58 ESE 6 9 30.01 1016 10 16 0.00 0.00
3:53 pm 15:53 Mostly Cloudy 75 23.9 63 17.2 66 66 SSE 12 19 30.01 1016 10 16 0.00 0.00
4:53 pm 16:53 Mostly Cloudy 76 24.4 63 17.2 64 64 SE 14 22 29.99 1016 10 16 0.00 0.00
5:53 pm 17:53 Mostly Cloudy 76 24.4 63 17.2 64 64 SE 9 15 29.99 1016 10 16 0.00 0.00
6:53 pm 18:53 Mostly Cloudy 75 23.9 63 17.2 66 66 SE 9 15 29.99 1016 10 16 0.00 0.00
7:53 pm 19:53 Mostly Cloudy 75 23.9 63 17.2 66 66 SE 9 15 29.99 1016 10 16 0.00 0.00
8:53 pm 20:53 Mostly Cloudy 71 21.7 62 16.7 73 73 SSE 8 13 30.00 1016 10 16 0.00 0.00
9:53 pm 21:53 Partly Cloudy 70 21.1 62 16.7 76 76 SE 8 13 30.01 1016 10 16 0.00 0.00
10:53 pm 22:53 Clear 68 20 60 15.6 76 76 SE 6 9 30.01 1016 10 16 0.00 0.00
11:53 pm 23:53 Mostly Clear 67 19.4 60 15.6 79 79 ESE 8 13 29.97 1015 10 16 0.00 0.00

Powered by AerisWeather